Location: Unspecified
(40.9447°N, 78.9903°W)
Time: 07:15:22
(UTC-04:00)

Cosmos 1674 - Pass Details

Date: 28 July 2021
Orbit: 492 x 516 km, 82.5° (Epoch: 16 September)

Event Time Altitude Azimuth Distance (km) Brightness Sun altitude
Rises 05:24:54 0° 329° (NNW) 2,644 6.3 -8.0°
Reaches altitude 10° 05:28:08 10° 300° (WNW) 1,749 5.1 -7.5°
Maximum altitude 05:29:46 12° 275° (W) 1,597 4.7 -7.2°
Drops below altitude 10° 05:31:23 10° 249° (WSW) 1,740 4.7 -7.0°
Enters shadow 05:31:55 - 242° (WSW) 1,844 4.8 -6.9°
